Theta_e
351 350 349 348 349 349 350 350 350 350 349 350 349 348 347 347 347 348 349 348 348 348 348 348 348 348 347 348 347 345 345 345 347 349 350 349 348 348 348 349 350 347 343 340 342 344 344 346 348 347 345 345 343 338 338 343 344 342 342 342 341 340 339 338 336 335 335 335 336 337 338 339 339 340 339 339 339 339 339 341 342 343 343 342 342
351 350 350 349 349 350 350 350 350 350 350 350 350 349 348 347 347 346 347 347 347 348 348 347 347 348 348 347 348 347 346 345 345 347 349 349 349 349 349 350 350 349 345 340 339 342 343 345 347 348 347 345 344 341 340 341 344 344 343 342 342 341 340 339 338 337 336 335 335 336 338 339 340 341 341 341 341 340 341 342 342 343 343 342 342
351 349 347 347 348 348 348 349 350 349 349 350 351 350 348 347 347 347 347 346 346 347 348 348 347 347 348 348 348 348 347 346 346 346 347 348 349 350 350 351 351 350 348 343 339 338 341 343 345 347 347 346 344 343 342 341 342 344 344 343 342 342 341 340 339 339 338 336 335 336 337 338 340 341 342 342 341 341 341 342 342 343 343 342 341
350 347 344 344 344 344 345 346 347 347 349 350 351 351 350 348 346 347 347 347 347 347 347 349 349 347 347 348 348 348 348 347 347 346 346 347 347 349 350 351 353 352 350 346 341 339 338 340 343 345 346 347 346 344 343 341 340 343 344 344 343 343 343 341 340 340 340 338 336 336 336 337 339 340 341 341 341 341 341 342 342 342 342 342 341
351 346 344 343 344 345 346 347 347 349 350 351 353 353 352 350 349 348 347 347 347 347 346 347 348 348 347 347 347 347 348 348 348 347 346 346 346 348 349 350 352 351 350 348 344 341 339 338 340 343 345 346 347 346 344 341 340 341 343 344 343 343 343 342 342 341 341 340 338 336 336 336 337 338 339 340 340 340 340 341 341 341 341 341 339
352 348 347 347 347 348 347 347 349 351 353 353 353 353 352 352 352 352 350 348 347 347 346 345 346 347 347 347 348 347 347 347 348 348 347 347 346 347 347 349 351 351 350 349 347 344 341 340 339 340 342 344 345 346 345 342 341 342 342 343 343 343 343 343 342 342 341 341 339 338 337 337 336 337 337 338 338 338 339 339 339 339 339 338 338
351 351 352 352 350 349 349 349 351 352 352 353 354 353 352 351 352 353 352 351 349 347 347 346 346 346 346 347 347 347 347 348 348 347 347 347 347 347 346 347 349 350 349 348 348 346 343 342 341 340 341 342 342 344 345 343 343 343 341 341 342 341 342 343 342 342 342 341 341 339 338 338 337 336 336 337 336 337 338 339 339 339 338 338 338
352 352 352 352 351 351 351 352 352 352 352 353 354 354 353 352 352 354 353 352 351 350 349 347 347 347 347 347 346 346 348 348 348 348 347 346 347 347 347 347 347 348 348 348 348 348 345 344 343 341 340 341 341 341 343 344 344 343 341 339 340 341 341 342 342 342 342 342 341 339 338 338 338 337 337 337 338 338 339 340 340 339 339 339 339
354 354 352 351 352 353 353 353 352 353 352 353 352 352 353 352 353 354 354 353 352 352 351 350 349 349 348 348 347 347 347 348 348 348 346 345 347 347 348 347 347 347 347 348 348 348 347 346 345 344 341 340 341 341 341 343 344 343 341 339 338 339 340 340 340 341 341 341 341 340 339 339 339 338 338 338 338 339 340 341 341 341 340 340 340
352 353 352 352 354 355 353 351 351 353 353 353 352 351 351 351 352 353 353 353 352 352 352 351 351 351 350 350 350 349 348 348 348 348 347 347 347 348 348 348 348 348 348 347 347 348 349 349 347 347 345 342 341 341 341 342 343 343 342 340 338 338 339 339 340 340 339 340 340 341 340 339 339 338 339 339 339 339 340 340 341 341 341 341 340
351 352 353 354 355 353 350 349 351 353 353 353 353 352 352 352 352 352 351 352 351 351 351 352 352 351 351 351 351 350 349 348 347 348 349 349 349 349 349 349 348 348 347 347 347 347 348 349 350 350 349 346 342 342 342 342 343 344 343 342 339 338 338 338 339 339 339 339 339 340 340 339 339 338 339 339 339 340 340 340 341 341 341 340 340
352 351 352 352 351 350 348 348 350 351 352 352 351 350 350 351 351 351 350 349 349 349 349 350 351 349 348 348 350 350 349 347 346 348 350 350 351 350 349 347 347 348 347 347 347 347 347 348 351 352 350 349 346 344 343 342 343 344 344 343 341 339 339 338 338 338 339 339 339 339 339 339 339 339 338 339 339 339 340 340 340 340 340 339 339
349 348 349 349 348 348 348 347 348 349 349 349 349 349 350 350 351 351 350 349 349 350 349 349 349 347 347 347 347 347 347 346 346 347 348 349 349 349 348 347 345 346 348 348 347 347 347 347 349 350 350 350 350 348 346 343 343 342 343 344 343 340 339 338 338 338 337 338 339 339 339 339 339 338 338 338 338 338 338 338 338 338 339 339 339
348 347 347 347 347 348 348 348 348 348 348 348 349 349 350 350 349 349 350 349 349 349 348 348 348 347 347 346 346 346 345 345 346 346 346 347 347 347 347 347 345 343 345 347 347 347 347 347 348 349 349 349 351 351 349 347 345 344 343 343 343 342 340 339 339 338 337 336 337 338 339 339 338 338 338 337 337 337 337 337 337 338 339 339 339
346 344 343 344 345 345 346 345 345 345 346 347 347 348 349 348 348 348 348 348 348 348 347 347 347 347 347 347 347 346 346 345 345 346 347 347 347 348 348 347 345 343 343 346 348 348 348 347 348 350 350 349 350 351 351 350 348 347 346 343 342 342 342 340 338 338 338 337 336 336 337 338 337 337 337 337 337 337 337 337 337 338 339 340 340
342 342 342 342 343 343 342 342 343 345 345 346 347 347 347 347 347 347 347 347 347 347 347 346 346 346 347 347 346 346 348 347 344 344 345 346 347 348 348 347 346 344 345 347 348 348 348 348 349 350 350 349 349 349 350 351 351 350 349 346 344 342 343 342 339 339 339 339 339 336 335 336 337 336 336 337 337 337 337 337 338 339 340 340 341
341 341 341 341 341 342 342 342 342 345 346 346 347 346 346 346 347 347 346 346 347 346 345 344 344 345 345 346 346 347 348 346 344 344 344 344 344 344 345 346 346 345 346 347 347 348 348 348 348 348 348 348 349 348 348 351 352 352 351 350 348 346 344 342 341 341 341 341 341 339 337 335 335 337 337 338 338 338 339 338 339 340 340 341 341
340 339 338 338 340 341 342 341 341 343 344 344 345 345 345 346 346 346 346 345 346 346 345 343 343 344 344 344 345 344 344 343 344 345 344 343 342 343 343 343 343 344 344 345 345 346 345 345 346 346 346 346 348 348 348 349 352 353 352 350 351 350 347 345 343 342 342 342 342 342 340 338 336 337 338 339 339 339 339 340 340 340 341 341 341
338 337 336 337 339 340 340 341 341 342 343 343 343 344 344 345 345 346 346 345 345 345 344 343 342 344 344 344 343 343 342 343 344 345 344 343 342 342 342 341 341 341 343 343 343 345 345 344 345 345 345 345 345 345 346 348 350 351 351 350 351 352 351 349 346 344 342 342 342 342 341 340 339 337 338 339 339 340 341 341 341 341 341 341 342
338 337 338 339 339 339 340 340 341 341 342 342 343 343 344 344 344 344 345 344 345 344 344 343 343 344 344 343 342 342 342 342 342 342 342 342 341 340 340 340 341 341 342 342 342 344 344 344 345 346 345 344 345 344 344 346 348 350 350 351 352 352 353 352 351 348 345 343 342 342 341 341 341 339 337 338 339 339 341 342 341 341 341 342 342
338 338 339 339 339 339 340 340 341 340 341 343 342 342 342 343 343 343 343 343 344 343 342 343 343 343 343 343 342 342 342 341 341 339 339 342 342 340 340 340 340 340 341 341 342 342 343 344 345 346 345 343 344 345 345 345 346 348 349 350 352 352 352 352 353 352 350 346 343 342 342 342 342 341 338 336 337 338 340 341 341 341 341 342 342
339 339 338 339 339 339 339 339 339 339 340 342 343 341 341 342 342 342 342 342 342 341 340 342 342 341 342 342 341 341 341 340 340 340 339 341 341 339 339 339 339 339 339 340 341 341 343 342 342 344 346 346 345 344 344 345 344 346 347 348 349 350 350 351 352 353 353 351 347 344 343 342 343 344 341 337 335 336 337 339 340 340 340 341 342
339 338 338 339 339 339 338 337 338 339 339 340 342 342 342 342 342 341 340 340 340 340 340 341 340 340 340 340 339 340 340 339 339 339 338 339 339 339 338 338 338 338 339 339 339 339 340 341 341 342 345 347 346 345 346 346 345 344 345 346 347 349 349 350 351 352 354 354 352 349 346 344 343 344 345 343 338 335 335 336 338 340 340 340 342
338 339 339 339 338 338 338 338 338 339 339 339 340 342 343 341 339 337 336 337 338 339 339 339 338 338 338 337 338 339 339 338 339 339 339 338 338 338 338 338 338 338 338 338 338 338 339 339 340 341 342 344 344 345 346 346 347 345 345 345 346 347 347 349 350 351 353 354 354 353 349 347 345 344 346 347 345 342 338 336 337 339 340 340 342
338 339 339 339 338 338 339 339 339 339 339 338 339 341 341 340 337 336 336 337 338 339 339 338 336 336 337 337 338 337 337 338 338 339 339 338 338 338 337 338 337 337 337 337 337 338 338 339 340 340 340 341 342 343 343 344 345 346 346 346 346 346 346 346 347 348 350 353 354 354 352 350 347 345 344 345 347 348 344 339 337 338 340 340 341
339 339 338 338 338 339 339 339 339 339 339 339 339 339 340 339 338 338 338 338 339 339 337 336 335 336 338 338 337 337 337 337 337 338 338 338 338 337 337 337 336 336 336 336 336 337 337 336 338 339 339 340 340 341 342 342 343 344 346 348 346 345 345 345 346 347 349 351 352 354 353 351 349 347 345 344 345 346 345 342 339 338 339 340 340
339 338 338 338 338 339 339 339 339 339 339 339 338 339 339 339 339 338 338 338 339 338 336 336 337 338 338 337 336 336 336 336 337 338 337 337 336 336 336 337 336 335 335 334 334 335 335 335 335 337 338 339 339 340 341 341 342 343 344 347 346 344 344 345 346 347 348 350 351 352 353 352 351 349 348 346 344 344 343 342 341 340 340 340 340
338 338 338 338 338 338 338 338 338 338 338 338 338 338 338 338 337 337 337 338 338 337 337 337 338 338 337 336 335 334 335 335 336 336 335 334 334 333 334 335 336 335 335 334 333 333 333 334 334 335 337 338 340 340 341 341 341 343 344 346 346 345 344 344 346 347 348 349 350 351 351 352 352 351 350 348 346 344 342 342 342 342 341 340 339
338 337 337 337 337 337 337 337 337 337 337 337 336 336 336 336 336 336 337 337 337 337 337 337 337 338 338 335 333 333 334 335 335 333 331 330 330 332 333 334 335 336 336 335 334 332 333 333 334 334 334 336 337 339 341 342 342 342 344 345 345 344 344 344 345 346 347 347 348 350 350 350 350 351 351 351 350 348 345 344 343 342 341 340 340
336 336 336 337 336 336 336 336 336 336 337 336 336 336 336 336 336 336 337 338 337 337 337 338 337 337 337 336 334 332 333 333 333 330 327 326 328 330 331 332 334 336 336 335 334 333 333 333 333 334 334 335 335 336 339 342 342 343 344 345 344 343 344 344 344 344 345 346 347 348 349 349 349 350 351 351 351 350 348 347 345 344 343 342 342
336 336 336 335 334 335 336 335 335 336 337 337 337 337 336 336 337 337 337 338 338 338 338 338 337 337 337 336 333 332 332 332 331 328 324 323 325 326 326 327 329 331 332 332 331 330 330 331 331 332 333 334 335 336 336 338 339 341 344 346 345 343 344 344 344 344 345 346 347 347 348 348 349 350 351 352 351 350 349 348 347 347 346 345 345
336 336 334 334 335 335 335 334 334 335 336 337 337 337 337 337 337 337 337 337 337 337 336 336 336 336 336 335 332 331 332 332 331 328 324 322 324 325 325 325 325 325 326 328 329 327 326 327 328 328 330 331 333 335 336 335 335 337 341 344 346 345 344 343 343 343 345 346 346 347 347 348 349 350 351 351 351 350 349 349 349 348 347 346 346
336 335 335 335 334 334 334 333 333 333 334 336 337 337 337 337 337 337 336 336 336 336 335 336 336 335 334 334 332 331 331 332 331 328 325 324 324 325 325 325 324 324 325 326 327 327 325 325 325 326 327 329 332 333 335 336 335 335 338 341 344 346 345 344 343 343 344 345 346 347 348 349 350 351 351 350 350 350 349 349 349 348 347 345 344
335 335 335 335 334 333 333 333 333 333 334 334 336 337 337 337 337 336 336 336 337 336 335 335 335 334 333 334 332 331 331 331 330 329 327 325 325 325 325 325 325 324 324 325 326 326 326 325 325 325 325 327 330 333 334 336 336 337 338 339 342 344 345 344 343 343 343 344 346 346 347 349 350 351 351 350 350 349 349 349 348 347 346 343 342
336 335 335 335 334 333 333 332 333 334 334 334 334 336 337 337 337 336 336 336 336 336 335 334 334 334 334 333 332 331 331 331 330 329 327 326 325 325 325 325 325 325 325 325 325 326 326 325 324 324 325 326 329 332 334 335 336 337 338 339 340 342 342 343 343 342 342 343 345 346 347 348 350 351 350 350 349 349 349 349 348 347 346 344 342
334 333 333 333 332 331 331 331 333 334 333 333 333 334 335 337 337 336 336 335 335 334 333 334 334 333 334 333 332 331 331 331 330 329 328 326 325 325 324 324 325 325 325 325 325 325 325 325 325 324 324 325 327 330 333 335 336 337 337 338 339 340 341 341 342 342 342 342 345 346 347 348 349 350 350 350 349 350 350 349 349 348 347 346 344
332 332 332 331 330 330 330 332 333 333 332 332 332 332 333 334 335 336 336 334 332 331 331 333 333 333 333 333 331 331 331 330 330 329 327 326 324 324 324 324 325 325 326 326 326 325 325 325 325 324 324 325 326 329 332 334 335 336 336 337 339 340 340 341 342 342 341 342 343 344 346 347 347 349 350 350 349 349 349 349 349 348 347 346 344
333 332 332 330 330 330 330 332 333 332 331 331 331 332 333 333 334 335 336 334 330 328 329 330 331 332 333 332 331 331 330 329 329 328 328 326 325 325 325 325 326 326 326 326 326 326 325 325 325 325 325 325 326 329 331 333 335 336 337 338 339 340 341 342 342 343 342 342 343 342 342 344 346 348 350 350 349 349 349 349 348 348 347 346 345
332 332 332 331 331 330 330 330 330 330 330 330 330 332 333 334 334 334 334 331 327 325 326 329 331 332 331 331 331 331 330 329 328 328 328 327 327 327 327 327 327 327 327 327 326 326 325 325 325 325 325 325 326 328 330 332 334 336 337 338 339 340 341 341 343 345 345 344 345 344 344 344 346 348 350 350 349 348 347 348 348 347 347 347 347
332 333 332 332 331 330 330 330 330 330 330 330 331 332 333 334 334 334 332 329 326 325 326 328 330 330 330 330 331 331 330 330 328 328 328 328 329 329 328 328 328 328 328 327 326 325 325 325 324 324 325 326 327 328 330 332 334 335 336 338 339 340 340 341 343 345 347 347 347 347 346 346 347 349 351 351 349 348 347 347 348 348 348 348 349
333 334 333 332 331 330 330 330 331 331 330 331 332 333 333 334 333 332 331 329 328 327 326 326 327 329 330 330 330 330 330 330 329 329 329 329 330 330 329 329 329 329 327 326 325 325 324 324 324 325 325 325 326 327 329 331 333 334 335 337 338 339 340 341 342 343 345 346 347 347 346 345 346 348 350 350 349 348 347 348 349 349 349 350 350
334 334 333 332 331 330 331 331 331 330 330 331 332 332 332 333 332 332 331 330 329 328 327 326 327 329 330 330 330 330 330 330 330 330 329 330 330 330 330 329 330 329 327 326 325 324 324 324 324 325 325 325 326 326 328 329 331 332 334 336 337 338 339 341 341 341 342 344 345 345 345 345 346 348 349 350 349 348 348 348 348 349 350 349 348
335 334 333 332 331 331 331 330 330 330 331 331 330 330 331 331 331 332 331 329 328 327 327 327 327 329 330 330 330 329 330 330 330 331 330 330 331 331 330 330 330 328 326 325 324 324 324 324 324 325 325 325 325 326 327 328 329 330 333 335 337 338 339 340 341 341 342 343 344 345 345 344 346 348 349 350 349 347 346 346 347 348 349 347 344
335 334 333 332 331 330 331 330 330 330 330 329 329 329 330 330 330 331 330 329 327 327 326 326 327 329 330 329 329 329 329 329 329 331 330 330 331 331 331 331 329 326 324 323 323 323 323 324 325 325 325 325 325 326 326 327 328 329 331 333 336 338 339 339 340 341 341 342 344 346 346 345 346 348 349 349 349 348 346 344 345 348 349 346 342
335 334 333 332 331 330 330 330 331 329 329 329 329 329 329 328 329 330 329 328 327 327 326 326 328 329 329 329 329 328 327 328 329 329 329 330 330 331 331 329 325 323 322 322 322 323 324 324 325 325 325 325 325 325 326 326 327 328 329 331 333 336 338 338 339 340 341 342 344 347 347 346 347 348 348 349 349 349 347 346 346 349 349 346 342
335 335 333 332 331 330 331 331 330 329 329 330 330 329 328 327 328 328 328 328 327 327 327 327 328 329 329 329 329 328 328 328 328 328 329 330 331 330 329 327 323 322 322 321 321 323 324 324 325 325 325 325 325 325 325 325 325 326 327 328 330 334 337 338 338 339 341 342 343 346 347 347 348 347 346 348 350 349 349 348 348 349 350 348 344
336 335 333 332 331 331 331 330 329 329 330 330 329 328 328 327 327 327 327 328 327 327 328 329 329 330 329 329 328 329 328 327 327 328 330 331 331 330 328 325 323 322 320 320 321 323 324 324 325 325 325 325 325 325 326 326 326 326 326 327 328 331 334 336 338 338 340 341 343 346 346 346 348 347 346 348 350 350 350 350 349 349 349 348 346
336 335 333 332 331 330 330 330 330 330 330 329 328 328 328 327 326 326 327 327 327 327 329 330 330 330 329 329 329 329 327 326 328 329 331 331 330 328 326 324 322 321 320 320 322 323 323 324 324 325 325 325 326 326 326 327 326 326 326 326 327 328 329 334 338 338 339 341 342 345 345 345 347 347 347 348 350 350 350 350 350 350 349 348 347
336 335 334 332 331 331 330 330 330 330 329 329 328 328 328 327 326 326 327 327 327 327 328 328 329 328 329 330 330 327 325 327 328 329 330 329 326 324 323 323 323 322 321 321 322 322 322 323 323 324 325 325 325 326 326 326 327 327 326 325 326 327 327 332 337 339 340 341 342 343 344 344 345 346 347 348 349 349 349 349 350 350 349 349 349
337 336 334 333 331 331 330 330 330 329 329 329 328 328 328 328 327 327 327 327 327 326 326 325 326 327 329 329 327 324 325 326 326 327 327 325 324 323 323 324 324 324 323 323 324 323 322 321 322 323 324 324 324 325 325 325 326 327 326 325 326 327 328 331 336 339 340 341 341 342 343 344 344 345 347 348 348 348 349 349 349 349 349 349 350
337 336 335 333 331 331 329 329 329 329 329 330 329 330 329 328 327 327 328 328 327 325 324 323 323 325 326 325 323 324 326 325 325 327 327 324 324 325 325 325 325 324 324 325 326 325 323 322 323 323 323 322 323 324 325 324 324 326 327 328 328 327 328 332 336 339 339 340 340 341 342 343 343 344 345 346 347 347 348 348 348 348 348 349 349
Wind_Speed
9 8 7 7 8 8 7 6 6 6 7 7 7 8 10 9 10 10 10 10 11 10 9 8 9 11 14 14 11 11 11 9 9 11 12 13 14 15 16 16 16 15 16 17 18 18 18 19 18 19 19 18 19 19 21 21 20 19 19 19 18 18 18 18 18 17 18 17 17 17 16 16 15 14 14 13 13 12 11 11 10 9 8 7 6
9 7 7 7 6 7 7 7 7 8 8 9 9 10 11 11 11 12 12 12 12 11 10 9 8 9 13 16 15 13 12 12 10 10 10 11 13 14 15 16 16 17 17 17 18 18 18 19 19 19 20 19 19 19 20 22 22 21 20 20 20 19 19 19 18 18 18 18 18 18 17 17 16 15 15 14 14 13 12 12 11 10 9 9 8
9 9 10 9 8 8 8 9 10 10 11 11 12 12 13 13 13 13 13 14 13 12 12 11 11 10 12 17 17 15 13 13 13 11 9 11 13 14 15 15 16 17 17 17 18 19 18 19 19 20 20 20 20 20 20 22 23 22 21 21 21 20 20 20 20 19 19 19 19 19 18 18 17 16 16 15 15 14 13 12 12 11 10 10 9
10 10 11 10 10 10 10 11 12 12 13 14 15 16 16 16 16 15 14 15 15 14 13 13 14 13 12 14 17 17 15 14 12 12 12 13 14 14 14 15 16 17 19 19 19 20 19 19 20 20 21 21 21 21 21 22 23 24 23 23 22 22 21 21 21 20 20 20 20 20 20 19 18 18 17 16 16 15 14 13 13 12 11 11 11
11 11 11 10 10 11 11 12 12 13 14 15 16 16 16 16 15 16 16 17 17 17 15 14 15 14 13 13 16 17 16 14 12 11 14 16 15 14 14 16 18 19 21 22 22 22 21 20 21 21 22 22 22 22 23 23 24 25 25 24 23 23 22 22 22 22 21 21 21 21 21 21 20 19 18 17 17 16 15 15 14 13 13 12 12
10 11 10 10 10 11 12 13 13 13 14 15 17 17 16 16 16 17 18 18 19 19 18 17 16 14 13 13 14 16 15 15 15 15 14 15 16 15 15 17 20 21 22 23 24 24 23 22 22 22 23 23 24 24 24 24 24 25 26 25 25 24 24 24 24 23 23 22 22 22 22 21 21 20 19 19 18 17 16 16 15 15 14 14 13
11 11 11 11 11 11 12 13 14 16 16 16 17 18 18 18 18 18 18 18 19 20 19 18 17 15 14 13 14 15 15 15 18 19 16 15 17 17 16 17 20 22 22 24 25 26 26 25 23 24 24 25 25 25 25 25 25 26 26 27 26 26 26 25 25 25 24 24 23 23 23 22 22 21 20 19 19 18 17 17 16 16 15 15 14
13 13 11 13 14 12 12 14 16 17 18 17 17 18 19 20 20 18 19 18 18 19 18 18 17 16 16 17 17 16 16 17 18 21 20 18 18 18 18 18 19 22 23 25 26 27 28 27 25 25 25 26 27 27 27 27 27 27 27 28 28 28 27 27 26 26 26 25 25 25 24 24 23 22 21 20 20 19 18 18 17 17 16 16 15
12 12 11 13 14 13 13 14 16 17 17 17 17 19 19 21 20 19 19 18 18 18 17 17 16 17 17 18 19 18 18 18 18 22 23 19 17 18 18 19 20 22 23 25 26 27 28 27 27 26 26 27 28 29 28 28 28 28 28 29 29 29 29 29 28 28 27 27 26 26 25 25 24 23 22 21 21 20 19 19 18 18 17 17 16
10 12 11 11 12 12 13 12 13 14 15 16 17 17 18 18 19 20 19 19 20 19 18 17 15 15 17 18 17 16 16 17 18 19 20 18 17 18 19 19 20 21 23 24 26 27 27 26 26 27 28 28 29 30 30 30 29 29 29 30 30 30 30 30 30 29 29 28 28 27 27 26 25 24 23 22 22 21 21 20 19 19 18 18 17
8 9 8 8 9 10 11 11 12 13 14 16 16 16 16 17 17 18 19 19 21 21 20 17 15 15 18 19 18 16 17 18 19 19 18 18 19 20 21 21 21 22 24 24 25 26 27 26 25 26 28 29 31 31 31 31 31 30 30 30 30 30 31 31 31 31 30 29 29 28 28 27 26 25 24 24 23 22 22 21 20 20 20 19 19
2 4 5 6 7 8 8 9 10 11 13 15 15 16 17 18 18 18 18 19 20 20 18 16 15 17 19 19 18 18 20 19 19 20 21 21 22 23 24 24 24 25 26 25 25 25 26 26 26 26 27 30 32 33 33 33 33 32 32 31 31 31 31 32 32 32 32 31 30 30 29 29 28 26 25 25 24 23 23 22 22 21 21 20 20
2 5 4 4 6 6 7 8 8 10 12 13 14 15 15 17 18 18 17 16 17 17 14 13 12 14 15 15 16 18 19 18 17 19 22 24 25 27 29 29 28 28 27 27 27 26 25 26 27 28 28 29 32 34 34 33 34 35 34 33 32 32 32 32 33 34 34 33 32 32 31 30 29 28 27 26 26 25 24 24 23 23 22 22 21
4 5 5 5 6 5 6 7 8 9 11 12 14 14 13 13 15 16 16 14 16 16 13 10 8 8 9 10 12 15 14 13 15 17 18 21 24 27 29 30 31 32 31 30 28 27 26 26 29 29 29 30 31 33 34 34 34 35 35 36 35 34 33 33 33 34 34 34 34 33 33 32 31 30 29 28 27 27 26 25 25 24 24 23 23
4 5 6 6 5 5 6 8 9 10 11 12 13 13 13 12 12 14 15 14 14 13 12 9 7 8 7 5 5 7 8 6 8 11 14 17 20 23 25 26 29 30 30 30 29 28 27 28 30 30 30 32 32 31 32 33 33 33 34 36 37 37 36 35 35 34 35 35 35 35 34 34 33 32 31 30 29 28 27 26 26 25 25 24 23
4 4 4 4 5 6 8 10 11 11 11 11 12 12 12 12 12 11 12 11 11 10 10 8 8 7 4 2 2 3 4 4 7 12 14 14 15 17 20 22 25 27 28 29 29 29 29 30 31 31 31 32 32 31 30 31 32 33 34 35 37 39 39 38 37 36 36 35 35 36 36 35 34 34 33 32 31 29 28 27 26 25 25 24 24
3 3 3 5 6 7 9 11 11 11 10 10 11 12 11 10 10 10 10 10 10 10 11 10 9 8 5 3 3 2 2 4 9 11 11 12 14 15 16 16 17 20 23 25 26 26 27 29 30 31 31 32 32 32 30 30 32 33 34 34 35 39 41 41 40 38 37 36 35 36 36 37 36 35 34 33 32 31 29 28 27 26 25 25 24
3 4 5 6 7 7 10 12 12 11 10 10 11 11 10 9 8 9 8 8 9 11 13 13 9 8 8 7 7 6 6 7 6 5 9 13 12 12 14 15 17 18 17 21 22 22 24 26 28 30 30 31 32 32 32 31 32 34 35 34 34 37 40 42 42 41 40 38 37 36 37 37 37 37 35 34 34 32 31 29 28 27 27 26 25
5 6 7 7 6 8 10 11 11 10 11 11 10 10 10 9 9 9 8 8 9 11 14 14 10 7 7 7 9 10 10 9 5 3 7 8 7 10 16 19 21 21 20 21 22 22 23 25 28 30 31 31 31 32 33 33 33 34 35 33 33 36 39 41 42 42 43 42 39 38 37 38 38 38 37 36 35 33 32 31 30 29 29 28 27
4 5 6 5 6 8 9 9 8 9 10 11 10 9 9 9 9 9 9 10 11 11 12 12 10 8 8 9 9 9 11 11 10 7 4 4 7 12 16 18 19 20 19 21 22 22 24 26 26 29 31 30 29 30 32 34 35 35 35 34 34 35 37 39 41 41 42 43 43 41 39 38 38 39 39 38 37 35 34 33 32 31 31 30 30
3 4 5 4 5 5 5 5 7 8 9 9 9 9 9 8 9 10 10 10 10 10 10 10 10 10 11 11 10 10 11 11 10 8 5 5 6 7 11 16 18 19 19 18 19 21 23 23 23 26 29 28 28 29 31 33 35 35 35 35 36 37 37 38 39 40 41 42 44 44 42 40 39 39 40 40 39 37 36 35 34 33 33 32 31
2 4 4 3 3 3 4 6 8 8 8 7 7 8 8 7 8 9 9 9 9 9 10 10 10 11 11 10 11 11 10 7 7 7 5 5 5 6 11 13 13 18 21 19 19 20 21 22 22 24 25 25 26 31 33 33 34 36 36 36 37 38 38 38 38 39 40 40 42 43 44 44 41 39 40 41 41 40 38 38 37 36 35 34 33
2 3 2 2 3 4 6 7 7 8 8 7 6 7 7 7 7 8 8 9 9 9 10 9 10 11 10 10 10 10 8 7 9 11 7 5 6 6 10 13 14 18 21 21 23 22 22 23 24 25 23 22 23 27 31 31 33 36 38 38 38 39 39 39 39 39 39 40 40 40 42 45 44 42 40 40 41 41 41 40 39 38 36 35 35
2 2 1 1 4 5 6 6 6 7 8 7 6 5 6 7 7 7 8 8 8 9 9 9 9 10 11 11 10 10 10 10 12 13 10 10 10 6 10 15 13 16 20 21 23 24 23 23 25 26 26 26 26 27 28 30 31 34 38 39 38 39 40 39 40 40 40 40 40 39 39 42 44 44 42 40 40 40 41 41 41 39 38 37 36
2 3 3 4 6 5 5 6 7 7 7 8 8 6 5 7 8 8 9 8 8 9 9 9 10 10 10 11 10 10 11 11 12 12 12 13 12 8 11 14 11 15 21 20 19 22 23 22 22 24 26 27 29 29 30 32 33 34 36 38 37 38 39 39 40 41 41 41 40 39 39 38 40 43 44 44 41 40 40 41 42 41 40 39 37
3 4 7 7 5 5 6 7 7 7 7 8 9 7 5 7 8 8 9 8 7 9 9 9 9 9 9 10 10 10 11 11 11 11 11 12 13 11 12 13 12 14 17 18 18 17 20 22 22 23 26 27 28 30 31 33 36 36 36 37 37 37 38 39 40 41 41 41 40 40 40 39 38 39 42 44 44 43 42 42 42 41 41 40 39
4 5 6 5 4 5 7 8 8 7 7 7 8 8 7 8 9 8 8 7 7 8 9 8 9 8 8 9 10 10 11 11 11 10 11 11 13 14 12 9 10 10 10 15 18 16 20 23 23 23 24 26 28 29 30 32 34 36 37 37 37 38 38 38 39 40 41 41 41 40 40 40 39 38 38 40 43 44 44 43 42 42 42 41 40
5 4 4 4 4 6 8 8 8 8 8 8 8 8 8 8 9 9 8 7 7 8 9 9 9 9 7 8 9 10 11 11 10 10 11 12 13 15 14 10 9 9 7 9 11 14 20 21 21 23 22 23 26 27 28 29 30 32 33 35 36 37 38 38 40 41 41 42 42 41 40 41 41 40 39 39 40 42 43 44 43 43 42 42 41
4 4 4 4 4 6 7 7 8 8 8 9 8 7 8 9 9 9 9 8 8 8 8 9 10 9 7 7 9 9 9 9 9 9 11 13 14 15 15 14 13 10 8 9 8 11 19 20 20 25 24 23 25 27 28 28 29 30 31 32 33 34 36 38 40 41 41 42 42 43 42 41 41 41 41 40 39 40 41 42 43 43 43 42 41
5 4 4 3 4 6 6 7 8 8 8 8 8 7 8 8 9 10 9 8 9 9 9 9 9 9 8 8 8 8 8 7 7 9 11 12 13 13 13 14 14 12 11 12 10 12 20 23 22 25 28 27 27 28 29 28 28 30 32 33 33 33 34 37 39 40 40 40 41 42 43 42 41 41 42 42 41 40 41 42 42 43 44 43 43
7 6 5 5 6 6 6 7 8 8 8 8 8 8 8 9 10 10 9 8 9 10 10 10 9 9 10 9 9 7 7 6 6 8 11 11 11 11 12 11 12 12 14 13 10 13 21 24 26 28 30 31 31 30 31 32 30 29 31 33 34 35 37 38 37 36 35 37 38 39 39 40 40 40 42 44 43 41 42 42 42 43 44 44 44
9 9 8 7 6 6 7 8 7 7 8 8 8 8 9 9 10 9 8 9 10 10 10 10 10 10 10 9 9 8 8 7 6 8 11 12 11 12 12 11 10 12 14 13 9 14 23 26 28 30 30 31 32 31 32 35 34 31 30 32 34 35 38 38 37 35 34 34 35 36 36 38 39 40 41 43 43 43 42 42 43 43 43 44 44
11 12 10 8 7 8 9 9 8 7 7 8 8 9 9 9 8 8 9 10 11 10 10 11 11 11 10 10 10 10 9 8 8 9 11 12 13 14 14 13 13 13 13 13 11 13 22 28 29 31 30 29 30 30 30 33 34 31 30 31 32 33 36 37 36 35 35 35 35 35 35 36 38 39 41 42 42 42 43 43 43 44 44 44 44
13 14 14 12 11 10 10 11 10 8 6 6 7 9 9 9 8 8 9 10 11 11 12 12 11 12 11 11 11 11 10 9 9 10 12 12 13 16 17 15 16 16 15 15 15 13 18 26 31 32 30 27 28 29 28 30 32 31 30 31 32 32 33 36 37 37 37 37 37 36 35 35 36 38 40 41 41 42 42 43 43 44 44 44 44
14 16 16 14 13 11 12 14 13 9 7 6 7 9 10 9 9 9 10 10 11 11 13 13 12 12 12 12 12 13 12 11 12 12 12 13 14 16 18 18 18 19 18 17 18 17 18 23 29 32 30 28 28 29 28 29 30 30 31 32 33 33 33 35 37 39 39 39 39 38 36 34 34 36 39 40 40 41 42 42 42 43 44 44 45
11 11 10 9 9 10 11 14 14 11 8 6 7 9 9 9 10 11 11 12 12 12 14 14 12 11 13 14 13 13 13 13 13 13 12 14 15 16 18 19 19 20 20 19 19 21 21 23 27 30 30 29 28 28 28 28 29 28 30 32 33 33 34 35 36 38 38 38 38 39 38 36 35 36 39 40 40 41 41 42 42 42 42 43 44
3 4 5 5 6 8 8 9 9 9 7 7 8 9 9 10 11 12 12 12 12 13 14 14 13 12 13 14 15 15 15 14 14 14 14 15 16 17 18 19 20 20 21 21 21 23 24 24 27 30 31 29 28 28 27 27 28 28 29 31 32 32 33 35 36 38 37 36 36 36 37 39 39 38 39 41 41 41 42 42 42 42 41 42 42
5 6 6 5 6 7 6 4 4 7 8 8 10 10 10 10 12 12 11 11 11 13 13 14 13 13 13 15 16 15 13 13 14 16 16 16 17 19 19 20 21 21 21 22 22 23 25 26 26 28 29 27 26 26 26 25 27 27 27 28 30 31 31 32 34 37 37 36 35 34 35 38 40 39 39 41 41 41 42 43 43 42 41 41 41
10 8 6 6 7 7 7 8 10 11 10 10 11 11 10 10 11 11 10 10 11 13 14 14 13 13 14 15 15 15 15 16 16 16 17 18 19 20 21 21 22 22 21 23 23 23 25 25 24 24 25 26 25 25 26 26 26 27 27 25 26 29 30 30 31 34 35 35 35 34 35 36 38 39 40 41 41 40 40 41 42 42 42 41 40
11 8 6 7 8 9 11 13 12 10 10 10 9 9 10 11 11 9 8 9 11 13 14 15 15 14 15 15 15 16 17 18 16 16 17 19 20 21 21 22 22 21 21 23 23 23 24 23 23 23 23 24 24 24 25 24 22 24 25 24 24 27 27 28 29 31 32 33 34 35 35 36 36 37 39 41 41 40 40 40 41 41 42 41 41
9 8 9 9 10 12 12 11 10 9 10 10 9 9 10 11 10 9 9 9 10 12 14 15 16 15 15 15 14 16 17 18 17 17 18 19 19 19 21 22 22 21 22 23 23 23 22 21 22 22 21 21 22 22 22 22 21 23 25 24 24 26 27 27 30 31 30 31 33 34 36 36 36 37 39 41 42 42 42 41 41 41 41 41 41
11 11 11 11 11 12 11 11 11 11 10 10 10 10 10 10 10 10 10 10 10 11 13 14 15 15 15 15 15 18 19 19 18 18 18 18 18 19 21 21 21 21 22 24 24 23 21 20 21 22 19 19 22 22 21 23 25 26 26 25 24 25 26 23 26 31 32 31 31 33 37 37 34 35 37 40 43 43 43 43 43 42 41 40 40
13 12 11 12 12 11 11 12 13 12 11 10 11 11 11 12 12 12 11 11 11 11 12 13 14 14 15 16 17 19 20 19 17 18 18 17 18 20 20 20 20 22 23 24 25 24 22 20 22 23 20 20 23 25 24 24 25 26 26 25 24 24 22 16 16 22 28 30 30 31 35 36 33 33 36 38 41 42 43 44 44 42 41 39 39
14 13 12 13 12 12 13 13 12 12 12 12 12 12 11 10 11 12 11 11 11 12 12 13 13 14 15 17 18 19 20 19 18 17 18 18 18 20 19 20 22 24 22 22 23 25 24 22 23 24 23 23 25 26 24 24 24 26 27 27 25 23 21 18 16 18 23 27 29 29 31 33 31 31 35 37 39 40 41 43 43 42 41 39 37
15 14 13 13 13 13 13 12 12 13 14 14 11 8 7 7 8 9 11 12 12 12 13 13 13 14 15 17 18 20 19 18 17 16 16 17 18 19 20 21 24 23 22 22 22 22 23 23 24 26 28 27 26 27 28 27 27 27 26 27 27 24 22 22 23 25 25 25 27 27 27 29 30 30 33 36 37 37 38 40 42 42 40 38 36
16 15 14 13 13 12 11 11 13 15 16 13 9 7 8 9 8 8 10 12 13 13 13 13 13 14 16 17 18 19 18 17 17 16 16 16 18 19 21 23 24 22 22 24 23 21 22 23 24 28 32 33 31 32 34 32 30 28 27 28 28 25 24 25 27 30 29 27 27 24 20 25 28 28 31 35 35 35 36 38 40 41 40 38 36
17 16 15 13 12 11 11 13 15 16 14 11 9 10 10 9 8 9 10 11 13 13 13 13 14 15 16 17 17 17 18 18 18 16 15 16 18 20 23 24 23 21 22 24 24 23 24 26 28 31 34 36 36 36 37 36 33 31 31 32 32 30 28 27 27 29 30 30 29 24 17 20 25 26 30 35 33 33 36 36 37 39 40 39 38
18 17 16 15 13 13 14 15 16 15 13 11 10 11 10 8 8 9 10 10 11 12 13 14 16 17 17 16 15 16 18 20 18 15 14 16 19 22 24 23 20 20 22 23 24 25 28 31 33 34 35 36 37 37 37 36 36 36 34 34 34 33 29 24 22 24 27 28 29 27 19 19 22 25 28 31 31 32 34 35 36 38 38 38 37
20 18 18 16 15 16 16 15 14 13 12 11 10 10 9 8 9 8 8 8 9 11 13 14 16 17 16 14 14 16 18 17 15 14 14 17 20 21 20 19 18 20 23 24 25 27 30 33 35 35 35 36 35 35 36 34 34 35 32 32 33 30 24 17 14 17 22 24 27 28 23 20 22 24 24 26 27 31 33 34 36 37 36 37 36
21 20 19 18 16 15 14 13 13 13 13 12 10 9 10 10 10 7 6 6 8 11 12 14 15 16 15 15 15 15 15 14 15 15 15 18 19 17 15 15 18 21 23 25 27 29 31 34 35 34 35 36 34 34 34 33 33 32 29 32 34 29 23 18 14 14 17 21 26 28 24 21 23 24 22 19 20 27 32 32 33 35 35 35 35
21 21 20 19 18 17 15 15 14 12 12 10 9 9 10 11 9 7 6 6 9 11 13 15 16 16 17 17 15 13 13 16 17 16 17 19 17 13 12 14 16 20 23 24 26 28 30 33 34 34 35 37 35 34 34 34 33 31 27 28 33 31 26 22 19 13 10 15 25 29 24 21 23 24 21 13 9 16 27 31 31 32 33 33 34
Wind_Direction
245 251 264 266 265 264 260 268 275 285 291 292 286 280 283 279 274 269 265 272 274 280 287 282 275 268 275 282 284 292 291 283 267 258 252 246 243 240 236 232 228 225 222 220 217 216 216 215 215 216 216 217 217 215 212 210 211 213 212 211 211 211 209 208 209 208 207 207 208 209 210 212 212 213 214 214 214 214 215 218 220 222 226 227 228
245 253 266 274 276 274 273 280 282 288 291 286 286 285 285 279 272 267 262 266 269 274 278 276 277 273 282 288 288 292 294 296 283 264 255 252 250 244 238 233 229 228 226 223 221 220 219 219 218 219 220 220 220 219 216 214 212 214 215 215 214 214 214 212 211 211 211 211 211 211 212 214 215 216 218 218 218 219 219 221 223 223 225 226 225
256 267 275 278 274 274 279 286 287 290 293 290 288 285 283 281 278 273 267 265 264 267 271 275 277 274 279 285 289 290 289 294 290 274 261 258 258 251 243 241 237 233 232 229 225 224 223 224 223 223 224 223 223 222 220 219 216 215 217 217 217 216 217 216 215 214 214 214 214 215 215 216 217 218 220 222 222 223 223 224 225 226 226 226 228
263 271 272 274 275 280 284 287 292 292 293 294 292 289 285 283 280 277 273 270 268 268 270 272 273 274 271 274 283 285 285 288 284 277 271 262 258 255 249 247 242 234 233 233 229 227 227 227 227 227 228 227 226 225 223 222 219 217 217 219 219 218 218 219 219 217 216 217 217 217 218 218 218 219 221 223 225 226 226 226 227 228 229 229 230
260 269 267 272 279 285 288 288 293 292 288 288 288 289 290 289 287 282 279 275 273 272 273 269 265 266 264 267 276 279 282 282 273 274 274 263 253 252 251 245 243 237 231 231 229 227 228 229 230 230 230 230 229 228 227 224 223 221 220 220 221 220 220 220 221 220 219 219 220 220 220 220 220 220 222 224 226 228 229 230 230 231 232 232 233
251 265 263 268 274 277 285 289 291 289 283 279 280 284 287 292 294 291 287 281 278 276 275 274 271 266 264 269 274 275 280 278 273 276 274 266 259 254 250 241 239 241 236 232 231 228 227 227 229 232 232 232 231 230 230 227 224 223 223 222 222 222 222 222 222 222 222 221 222 222 223 223 223 223 224 226 228 229 231 233 234 234 234 235 235
237 248 248 255 264 271 280 285 288 287 284 280 278 281 284 290 294 293 292 287 282 280 277 277 277 273 270 271 273 277 281 275 274 277 272 266 268 264 256 246 239 241 241 237 232 230 230 227 227 229 231 233 233 232 232 230 226 224 224 224 224 225 224 224 224 224 224 224 224 225 225 226 226 226 226 228 230 231 232 233 235 236 236 237 236
233 232 239 253 257 266 277 281 283 283 283 282 279 280 284 288 290 290 292 291 288 285 282 278 274 272 273 274 273 273 274 271 271 274 272 265 267 266 259 253 249 246 245 242 236 232 232 232 231 230 230 232 234 234 234 233 231 227 225 224 225 227 228 227 226 226 226 226 226 227 227 227 228 229 229 230 231 233 234 234 235 236 237 238 237
242 238 254 263 256 264 283 287 285 284 285 284 283 285 287 286 285 286 288 292 292 290 286 282 276 274 274 274 273 269 268 269 268 267 271 269 265 263 259 255 252 250 250 248 244 240 236 236 236 234 233 234 234 235 235 235 235 233 229 226 225 227 230 230 229 229 228 229 229 229 229 229 230 230 230 231 232 233 235 235 236 237 238 238 239
260 259 273 275 264 274 294 299 295 291 289 288 287 288 288 284 282 283 284 287 289 290 289 287 283 281 281 279 276 271 265 268 270 265 265 266 262 260 260 258 254 255 256 253 251 247 243 241 240 238 236 237 237 237 236 236 236 236 234 231 228 227 229 231 232 232 231 231 231 231 231 231 231 232 232 233 233 234 235 236 237 238 239 240 240
265 272 291 290 284 294 307 310 307 300 294 294 294 294 294 290 286 286 287 286 285 287 290 287 284 287 288 285 279 271 267 269 271 266 258 258 259 259 260 260 259 260 260 257 253 249 246 246 245 242 240 239 239 239 239 238 237 237 237 236 233 230 229 231 233 234 233 233 232 233 233 233 233 234 235 235 236 236 236 237 238 239 240 241 242
280 323 327 312 306 311 317 318 314 305 300 301 303 304 303 299 296 293 291 291 287 286 287 286 288 293 292 287 281 276 277 277 271 262 256 253 254 257 260 261 261 261 260 256 252 250 247 243 241 240 240 239 239 238 238 239 238 238 238 237 237 235 233 233 234 234 234 235 235 234 235 235 235 235 235 237 238 238 239 240 240 241 243 243 244
5 7 354 339 332 322 321 325 323 314 308 308 308 307 305 302 300 293 290 292 291 288 287 290 293 298 300 300 297 290 284 281 273 264 260 257 256 258 259 258 258 258 257 256 253 251 248 240 236 237 238 238 238 237 237 237 238 238 238 238 239 239 237 236 235 236 236 236 236 236 236 236 236 236 236 237 239 240 241 242 243 244 245 246 246
36 31 21 2 352 343 336 333 329 322 315 313 312 311 309 309 303 293 287 287 289 290 292 294 289 291 307 315 310 305 297 284 276 270 266 265 262 261 260 256 254 253 254 255 253 252 248 240 236 237 240 241 239 238 237 237 237 238 239 239 239 239 239 238 237 237 237 237 237 237 238 238 237 237 237 238 239 240 242 243 245 245 246 246 247
51 31 18 5 360 355 346 334 327 323 320 319 319 318 316 318 312 299 293 290 291 297 301 299 283 285 300 305 311 320 315 297 284 281 281 279 272 267 264 258 255 252 251 251 250 251 249 241 236 236 239 243 242 239 239 239 239 238 239 239 239 239 239 239 239 238 238 238 238 238 238 239 239 239 239 239 239 240 242 244 246 245 245 246 246
34 20 11 360 349 341 336 331 331 333 331 328 322 317 316 320 321 312 306 302 301 304 306 301 287 285 292 281 301 312 294 324 335 315 304 293 282 275 271 266 260 253 248 248 248 248 245 238 235 235 239 244 244 243 241 239 241 241 239 239 239 239 238 238 239 239 239 239 239 239 239 239 241 241 241 241 241 241 242 243 244 244 244 244 246
28 8 340 337 340 338 337 336 340 343 340 333 323 317 319 324 328 325 317 308 305 304 303 305 298 285 277 266 286 289 269 332 335 319 309 302 297 293 287 283 274 260 250 248 248 247 244 239 237 240 244 245 245 246 244 239 239 242 241 239 239 239 238 238 237 237 238 239 239 240 240 241 242 243 243 242 243 242 242 242 241 241 242 243 244
347 337 338 345 347 339 336 338 343 347 344 339 333 331 337 340 339 331 319 306 303 301 301 312 318 299 288 277 271 266 271 303 318 306 303 302 303 302 298 301 302 294 277 264 261 260 257 253 249 249 249 246 245 246 245 241 239 240 242 242 240 239 240 239 237 236 237 237 238 240 241 242 243 243 244 244 244 243 242 241 240 240 241 242 244
325 335 342 347 342 331 331 336 345 350 346 344 342 343 344 341 339 332 322 317 312 305 303 313 322 314 307 297 285 278 275 283 290 296 308 301 299 302 300 302 305 304 297 288 285 280 273 267 259 254 252 248 246 246 245 243 241 241 242 242 240 240 241 241 239 237 237 236 236 238 240 242 243 244 245 245 245 244 243 242 241 241 242 243 243
320 324 332 337 329 325 331 340 350 349 341 340 342 341 340 339 341 339 334 331 324 315 310 313 316 314 315 310 301 291 285 287 286 284 301 300 299 304 307 312 308 300 296 294 296 292 283 275 265 256 253 249 245 246 247 244 242 243 242 241 240 240 241 242 242 240 239 237 236 236 238 240 242 244 244 245 245 245 243 243 242 243 244 245 245
306 319 335 344 329 327 339 344 341 338 331 335 344 346 348 351 349 345 341 335 329 325 321 318 318 317 317 313 308 303 302 306 297 280 270 280 297 310 315 318 311 302 299 297 298 296 289 282 271 262 257 253 251 251 250 247 245 244 244 242 241 241 241 242 243 243 242 240 238 237 237 238 240 242 244 245 245 246 245 244 244 245 246 246 246
310 322 335 343 337 330 328 325 325 329 331 334 345 350 352 353 344 339 338 334 331 332 331 329 328 326 322 316 312 312 314 318 309 302 290 274 282 300 308 313 309 304 305 304 303 300 293 286 278 270 263 257 256 254 252 251 249 246 244 244 243 243 243 242 242 244 244 242 240 239 239 239 239 240 243 245 245 246 247 246 247 247 247 247 247
322 321 333 345 345 330 319 321 325 332 340 343 341 339 338 334 326 326 332 335 334 334 335 335 335 332 328 321 314 309 305 295 296 305 303 283 291 300 303 306 301 298 302 305 304 299 294 289 282 277 271 263 260 257 256 256 254 250 247 247 245 244 244 244 242 242 243 244 242 241 241 240 239 239 241 244 246 246 247 248 248 249 248 248 248
311 332 11 329 316 323 326 328 329 332 336 338 333 320 317 324 330 337 342 344 341 341 343 340 338 335 333 334 325 312 308 304 301 301 298 293 295 293 300 307 301 295 302 305 303 301 297 291 284 281 277 273 269 263 261 260 257 253 249 247 245 244 244 245 245 242 241 243 243 243 243 242 241 240 240 242 245 246 246 247 249 249 249 249 248
298 322 327 309 311 327 337 332 333 336 329 328 331 323 316 330 343 346 345 348 346 343 342 340 341 337 337 343 340 330 326 323 313 305 303 301 298 295 302 306 300 298 305 305 301 302 300 294 290 289 285 279 273 268 262 259 258 256 251 247 245 245 246 245 246 245 241 240 242 244 245 244 242 241 241 241 242 244 245 247 247 248 248 248 248
285 305 318 323 332 338 335 331 334 339 329 323 330 334 333 332 332 330 331 339 339 334 338 344 346 341 338 345 344 339 338 336 327 314 311 307 300 301 307 307 301 297 303 305 303 300 298 297 297 294 290 285 278 272 267 261 257 256 252 250 250 249 248 247 246 245 242 239 241 243 244 244 244 243 242 242 242 243 244 245 246 246 246 247 247
285 308 334 350 358 336 329 333 335 333 327 321 322 328 331 323 319 322 328 332 328 330 343 350 350 345 338 342 343 339 340 343 337 326 326 319 307 305 304 305 308 303 301 305 303 295 293 299 300 295 293 292 288 280 274 267 260 256 253 252 252 252 252 249 246 245 243 241 241 242 243 243 243 244 244 244 243 243 244 245 245 246 246 247 247
284 308 345 351 337 322 323 329 331 328 322 319 319 318 321 324 326 329 333 335 329 330 339 340 338 338 334 338 340 336 341 347 343 339 338 332 324 317 308 298 303 309 312 307 303 299 299 303 303 299 297 296 296 293 285 275 266 262 257 253 252 253 254 252 248 246 245 244 243 242 242 242 242 243 245 245 245 244 244 245 245 246 246 247 247
279 305 321 315 313 318 322 321 324 324 317 316 318 312 313 322 326 325 327 328 322 320 324 325 327 325 321 329 336 334 341 351 350 350 347 338 334 329 319 308 300 298 307 308 302 301 303 304 301 299 299 296 293 295 293 283 273 267 262 259 256 255 254 252 248 247 247 247 246 244 242 243 242 243 244 246 247 246 245 245 245 246 246 247 247
271 293 299 293 302 311 312 311 317 320 315 315 315 309 309 312 312 313 314 310 308 309 310 312 318 318 310 316 327 332 339 347 345 344 345 342 339 336 333 326 311 296 296 305 302 300 304 304 300 298 299 298 293 290 290 286 281 275 268 264 262 258 253 249 247 248 248 247 247 245 243 243 243 243 244 246 248 248 247 247 246 246 247 247 247
263 268 265 274 286 290 294 302 309 310 311 313 309 303 300 296 298 303 303 297 296 299 302 305 311 310 304 306 314 324 330 331 329 333 339 341 338 336 336 335 326 311 304 306 303 304 308 307 303 301 299 297 295 289 284 281 281 282 277 270 266 261 253 247 246 248 248 246 244 244 244 243 244 244 244 246 248 249 249 248 248 248 248 248 248
255 258 265 271 271 272 281 290 295 296 298 300 302 301 294 287 290 296 300 300 296 296 301 303 302 302 300 299 301 310 318 311 302 315 331 336 333 330 330 330 334 330 317 307 296 302 309 308 305 304 302 298 294 289 284 281 280 279 278 275 270 261 252 247 246 246 246 244 241 241 243 243 243 244 245 246 249 250 249 249 250 249 249 249 249
251 257 265 264 261 269 273 276 281 286 288 291 296 298 293 289 287 287 294 299 295 292 296 298 299 304 304 295 293 300 305 298 292 304 320 328 325 323 326 325 326 333 325 307 294 298 309 312 310 307 306 301 293 286 283 282 281 277 274 274 272 262 250 247 248 246 244 243 241 241 242 242 242 243 244 246 250 251 250 250 250 250 250 250 250
254 258 262 258 259 271 273 272 274 273 279 293 296 292 290 291 286 282 291 295 293 294 294 293 296 302 299 291 290 294 294 288 288 298 310 318 318 319 322 322 318 323 325 310 298 296 306 313 314 311 310 305 294 287 282 278 278 277 272 270 271 266 257 252 249 247 247 245 244 244 244 243 243 242 243 246 249 251 251 251 251 251 252 252 251
258 258 260 256 260 272 277 276 272 264 272 291 303 303 297 293 287 282 285 286 286 291 293 291 293 296 290 285 287 289 284 281 285 291 299 307 312 313 316 318 313 314 318 314 304 298 301 309 312 311 310 307 296 289 285 278 275 275 272 270 269 269 267 262 256 251 249 248 246 245 244 243 243 243 244 247 249 250 250 251 251 251 252 252 252
259 261 266 266 274 282 286 284 271 256 264 290 314 319 308 295 290 288 290 291 288 289 292 291 291 293 291 288 289 287 278 274 278 282 288 298 305 306 309 313 311 310 314 314 306 301 299 304 308 308 306 305 298 290 285 281 276 272 271 270 268 266 267 267 264 259 254 251 248 247 245 243 244 245 246 248 249 249 249 250 250 251 252 252 252
260 274 285 293 301 303 307 302 273 254 275 303 315 318 306 297 298 297 300 303 301 301 301 299 294 290 289 290 293 290 280 276 276 276 280 290 297 300 305 310 310 309 311 313 308 303 300 300 303 306 305 302 298 291 285 280 276 273 270 268 265 263 263 264 263 262 258 254 250 249 248 247 246 247 248 248 248 248 249 250 250 250 251 251 252
270 280 285 294 305 310 320 331 305 293 304 310 309 305 293 292 300 302 303 306 309 311 311 309 305 296 289 292 295 291 285 286 283 277 278 284 291 298 303 307 309 309 308 310 309 305 301 299 300 302 302 301 299 294 289 283 276 272 270 269 266 262 260 261 260 258 255 251 249 247 248 248 246 245 247 248 248 248 249 250 250 249 249 250 251
272 276 281 290 298 305 308 308 310 310 309 305 299 289 277 283 294 295 296 303 313 320 318 314 309 299 294 297 295 290 290 292 285 276 276 282 290 299 302 304 307 307 305 307 308 305 302 301 299 299 300 300 299 296 295 291 281 274 270 267 267 264 259 257 255 253 249 246 245 244 243 245 245 246 248 248 248 248 249 249 249 248 248 249 250
270 273 277 282 285 292 296 300 306 307 307 301 288 276 276 285 290 286 285 295 310 320 320 314 308 301 298 298 293 291 297 299 289 276 276 286 295 298 300 303 306 305 304 305 305 303 302 300 300 300 301 301 301 300 299 294 283 274 269 262 261 262 259 255 251 249 245 241 241 241 242 243 244 245 247 247 247 248 249 249 247 247 247 248 249
263 269 272 271 278 287 291 296 299 300 303 298 285 282 288 288 285 283 280 284 295 307 315 317 313 306 302 299 295 297 305 307 297 283 280 288 293 294 299 305 305 304 305 305 303 301 301 301 302 303 304 303 302 302 301 295 286 280 274 265 260 260 260 257 253 251 247 244 243 243 244 244 243 244 245 245 247 247 247 246 245 245 246 247 248
251 258 261 264 274 281 281 285 294 296 295 289 284 288 289 285 282 278 273 275 285 298 310 315 312 306 302 300 298 301 307 309 302 291 288 291 292 293 300 304 304 305 306 303 301 301 301 302 302 304 305 303 302 300 297 296 294 290 281 269 263 263 260 256 256 254 250 246 244 244 246 245 242 242 243 244 246 247 245 243 243 244 245 245 244
246 250 255 262 269 271 272 280 291 292 285 283 285 287 287 286 282 273 266 274 287 297 306 310 308 304 299 297 300 304 309 310 306 298 297 299 297 297 300 300 301 305 304 298 297 300 302 300 301 302 301 299 301 300 295 293 294 293 286 275 264 260 256 252 254 253 247 241 237 240 246 245 239 238 240 242 244 245 244 244 243 243 244 243 242
245 249 251 257 263 267 270 276 286 288 286 285 286 285 287 288 283 273 268 275 286 296 306 308 305 300 297 299 304 310 313 314 310 304 301 302 300 298 297 298 302 308 308 302 298 298 298 297 298 300 300 299 300 298 294 293 292 291 290 283 271 258 250 247 248 249 246 238 230 232 242 244 237 234 237 240 243 244 246 245 243 242 242 241 241
248 251 250 253 261 267 268 272 280 284 284 283 281 281 289 296 288 271 268 276 284 293 303 306 303 298 298 303 310 316 319 318 317 314 309 305 302 298 297 302 307 311 315 313 307 304 302 298 296 298 302 303 300 296 294 292 288 286 286 283 278 265 250 246 248 248 246 238 226 226 237 241 234 230 235 239 241 242 244 244 242 241 241 240 241
248 251 252 254 259 262 263 269 280 284 280 273 268 279 299 307 295 271 267 274 280 289 298 301 300 300 303 307 312 316 320 319 319 320 316 308 303 301 302 308 312 315 319 320 319 318 315 309 302 302 307 307 301 296 296 291 283 277 274 274 276 270 258 253 253 252 248 238 226 223 233 238 230 227 233 238 239 239 239 241 241 239 239 240 241
242 248 252 255 257 259 262 272 280 281 273 261 263 282 298 305 296 280 273 271 277 289 298 300 300 300 303 308 312 314 317 319 319 317 311 305 304 305 308 311 313 315 320 322 324 324 323 320 314 309 311 312 307 302 300 294 285 276 269 266 267 269 269 266 259 255 251 240 226 218 227 236 226 222 231 236 236 237 237 237 239 239 240 242 243
238 243 248 251 255 258 263 270 273 271 263 261 275 286 289 298 302 290 276 274 285 296 299 299 298 298 302 308 311 315 319 320 317 310 305 305 306 308 309 310 311 316 321 324 327 329 328 327 323 319 319 318 315 312 308 302 293 283 273 264 259 261 266 267 257 249 246 237 225 217 224 236 226 221 230 234 232 234 235 235 236 238 241 243 244
236 241 245 247 254 260 262 262 262 262 262 270 283 285 281 293 305 293 274 281 298 302 302 302 299 301 307 308 308 314 318 319 315 309 307 310 311 309 308 307 309 315 321 326 329 330 331 330 329 329 327 324 320 318 315 310 303 293 275 256 248 249 251 253 249 239 234 230 225 219 222 233 230 223 230 233 231 233 235 234 235 236 238 240 242
236 240 243 247 253 255 255 257 258 258 260 267 273 272 276 294 301 286 269 288 306 309 312 311 307 305 303 300 305 312 314 317 316 310 311 317 316 312 309 309 310 313 318 323 326 328 331 333 333 332 330 327 324 322 320 318 313 304 281 254 243 237 234 237 238 231 226 226 224 220 219 229 230 225 227 232 233 234 235 235 235 235 236 238 239
237 241 243 245 246 245 251 262 264 255 248 253 260 262 277 297 297 272 260 288 311 317 316 311 308 306 300 301 311 314 309 313 312 306 311 319 317 311 311 311 309 308 314 321 324 328 333 335 334 332 332 330 328 326 326 325 321 316 301 270 245 229 224 231 232 223 220 225 223 217 215 222 226 222 220 219 229 239 237 236 236 235 235 237 237